sat.trackr.live / text

‹ back to catalog

STARLINK-37794

NORAD 69310 · 2026-119Q

PAYLOAD ACTIVE UNKNOWN

§ Identity

Operator
Country
US
Launch date
2026-05-30
Launch site
AFWTR
Launch vehicle
Mass (kg)
RCS (m²)

Purposes: comms

External: N2YO · Heavens-Above · Gunter

§ Orbital elements

Epoch: 2026-09-18T20:39:59.390784Z

Period
93.91 min
Inclination
97.2846°
Eccentricity
0.0002366
Mean motion
15.33453067 rev/d
Perigee alt
463.9 km
Apogee alt
467.1 km
Semi-major
6,843.7 km
B*
5.0766e-4
RAAN
286.6403°
Arg perigee
61.3537°
Mean anomaly
298.7944°
Rev number
1,841

§ Raw data

STARLINK-377941 69310U 26119Q   26261.86110406  .00016355  00000+0  50766-3 0  99972 69310  97.2846 286.6403 0002366  61.3537 298.7944 15.33453067 18412

JSON: /api/v1/satellites/69310 · /tle

For live sub-satellite position, see the globe view (requires WebGL).

§ Visibility from observer

Set your observer location to see the next 7 days of passes ≥ 10°. The values pass through the URL so the page stays shareable.

No JS? Fill the form by hand. The geolocation button needs JavaScript.